| time (UTC) | temp F | wind direction | speed MPH | gust MPH | rain 1hr in | rain 24hr in | rain mn in | humidity % | barometer mb |
| 20260510233304 | 42 | 22 | 3.0 | 12.0 | 0.00 | 0.00 | 0.00 | 78 | 1011.1 |
| 20260510232306 | 42 | 22 | 3.0 | 10.0 | 0.00 | 0.00 | 0.00 | 78 | 1011.2 |
| 20260510231804 | 42 | 7 | 6.0 | 12.0 | 0.00 | 0.00 | 0.00 | 78 | 1011.2 |
| 20260510231305 | 42 | 15 | 4.0 | 10.0 | 0.00 | 0.00 | 0.00 | 77 | 1011.3 |
| 20260510230814 | 42 | 28 | 3.0 | 12.0 | 0.00 | 0.00 | 0.00 | 77 | 1011.3 |
| 20260510230305 | 43 | 342 | 5.0 | 12.0 | 0.00 | 0.00 | 0.00 | 77 | 1011.3 |
| 20260510224805 | 43 | 41 | 5.0 | 13.0 | 0.00 | 0.00 | 0.00 | 77 | 1011.4 |
| 20260510224304 | 43 | 28 | 6.0 | 13.0 | 0.00 | 0.00 | 0.00 | 77 | 1011.4 |
| 20260510223804 | 43 | 31 | 6.0 | 17.0 | 0.00 | 0.00 | 0.00 | 78 | 1011.4 |
| 20260510223304 | 43 | 16 | 7.0 | 14.0 | 0.00 | 0.00 | 0.00 | 78 | 1011.5 |
| 20260510221805 | 44 | 14 | 5.0 | 13.0 | 0.00 | 0.00 | 0.00 | 79 | 1011.6 |
| 20260510221304 | 44 | 20 | 5.0 | 14.0 | 0.00 | 0.00 | 0.00 | 78 | 1011.7 |
| 20260510220305 | 44 | 29 | 6.0 | 12.0 | 0.00 | 0.00 | 0.00 | 78 | 1011.7 |
| 20260510213804 | 45 | 15 | 5.0 | 12.0 | 0.00 | 0.00 | 0.00 | 79 | 1011.9 |
| 20260510213304 | 45 | 41 | 5.0 | 10.0 | 0.00 | 0.00 | 0.00 | 78 | 1011.9 |
| 20260510211804 | 46 | 34 | 5.0 | 10.0 | 0.00 | 0.00 | 0.00 | 79 | 1012.0 |
| 20260510211304 | 46 | 23 | 7.0 | 15.0 | 0.00 | 0.00 | 0.00 | 79 | 1012.0 |
| 20260510210304 | 46 | 47 | 4.0 | 9.0 | 0.00 | 0.00 | 0.00 | 80 | 1012.1 |
| 20260510205306 | 46 | 39 | 5.0 | 13.0 | 0.00 | 0.00 | 0.00 | 80 | 1012.0 |
| 20260510204804 | 46 | 34 | 7.0 | 16.0 | 0.00 | 0.00 | 0.00 | 80 | 1012.0 |
| 20260510203804 | 46 | 11 | 3.0 | 10.0 | 0.00 | 0.00 | 0.00 | 81 | 1012.0 |
| 20260510203305 | 47 | 51 | 5.0 | 15.0 | 0.00 | 0.00 | 0.00 | 81 | 1012.0 |
| 20260510202804 | 47 | 45 | 7.0 | 12.0 | 0.00 | 0.00 | 0.00 | 81 | 1012.0 |
| 20260510201304 | 47 | 41 | 6.0 | 14.0 | 0.00 | 0.00 | 0.00 | 81 | 1011.9 |
| 20260510200807 | 47 | 62 | 6.0 | 12.0 | 0.00 | 0.00 | 0.00 | 81 | 1011.9 |
| 20260510195306 | 47 | 39 | 7.0 | 15.0 | 0.00 | 0.00 | 0.00 | 80 | 1011.7 |
| 20260510194804 | 47 | 52 | 5.0 | 14.0 | 0.00 | 0.00 | 0.00 | 81 | 1011.7 |
| 20260510194304 | 47 | 55 | 8.0 | 18.0 | 0.00 | 0.00 | 0.00 | 80 | 1011.7 |
| 20260510193304 | 48 | 42 | 5.0 | 12.0 | 0.00 | 0.00 | 0.00 | 81 | 1011.7 |
| 20260510192804 | 48 | 35 | 7.0 | 15.0 | 0.00 | 0.00 | 0.00 | 80 | 1011.7 |
| 20260510191804 | 48 | 47 | 6.0 | 15.0 | 0.00 | 0.00 | 0.00 | 80 | 1011.8 |
| 20260510191304 | 48 | 49 | 6.0 | 12.0 | 0.00 | 0.00 | 0.00 | 81 | 1012.0 |
| 20260510190304 | 48 | 39 | 7.0 | 12.0 | 0.00 | 0.00 | 0.00 | 81 | 1011.9 |
| 20260510184804 | 48 | 53 | 10.0 | 17.0 | 0.00 | 0.00 | 0.00 | 81 | 1012.1 |
| 20260510184304 | 48 | 37 | 8.0 | 12.0 | 0.00 | 0.00 | 0.00 | 81 | 1012.0 |
| 20260510183304 | 49 | 42 | 7.0 | 18.0 | 0.00 | 0.00 | 0.00 | 81 | 1011.9 |
| 20260510181804 | 49 | 35 | 6.0 | 14.0 | 0.00 | 0.00 | 0.00 | 81 | 1012.0 |
| 20260510181304 | 49 | 47 | 7.0 | 16.0 | 0.00 | 0.00 | 0.00 | 81 | 1012.1 |
| 20260510175306 | 49 | 36 | 9.0 | 18.0 | 0.00 | 0.00 | 0.00 | 81 | 1012.2 |
| 20260510174805 | 49 | 38 | 7.0 | 14.0 | 0.00 | 0.00 | 0.00 | 81 | 1012.2 |
| 20260510173304 | 49 | 22 | 6.0 | 10.0 | 0.00 | 0.00 | 0.00 | 81 | 1012.4 |
| 20260510170304 | 49 | 23 | 6.0 | 14.0 | 0.00 | 0.00 | 0.00 | 81 | 1012.4 |
| 20260510165306 | 49 | 39 | 9.0 | 15.0 | 0.00 | 0.00 | 0.00 | 81 | 1012.7 |
| 20260510164305 | 49 | 35 | 7.0 | 18.0 | 0.00 | 0.00 | 0.00 | 81 | 1012.7 |
| 20260510163804 | 49 | 18 | 7.0 | 18.0 | 0.00 | 0.00 | 0.00 | 81 | 1012.7 |
| 20260510162804 | 50 | 54 | 10.0 | 17.0 | 0.00 | 0.00 | 0.00 | 80 | 1012.7 |
| 20260510161304 | 50 | 39 | 7.0 | 16.0 | 0.00 | 0.00 | 0.00 | 80 | 1013.0 |
| 20260510160804 | 50 | 52 | 6.0 | 16.0 | 0.00 | 0.00 | 0.00 | 80 | 1013.0 |
| 20260510154804 | 50 | 37 | 4.0 | 12.0 | 0.00 | 0.00 | 0.00 | 79 | 1013.3 |
| 20260510154304 | 50 | 47 | 5.0 | 14.0 | 0.00 | 0.00 | 0.00 | 78 | 1013.2 |
| 20260510153804 | 50 | 24 | 9.0 | 17.0 | 0.00 | 0.00 | 0.00 | 78 | 1013.2 |
| 20260510152804 | 50 | 24 | 6.0 | 13.0 | 0.00 | 0.00 | 0.00 | 79 | 1013.3 |
| 20260510151804 | 50 | 13 | 7.0 | 20.0 | 0.00 | 0.00 | 0.00 | 79 | 1013.4 |
| 20260510151304 | 50 | 34 | 8.0 | 16.0 | 0.00 | 0.00 | 0.00 | 79 | 1013.5 |
| 20260510150804 | 50 | 52 | 9.0 | 20.0 | 0.00 | 0.00 | 0.00 | 79 | 1013.5 |
| 20260510150305 | 51 | 28 | 5.0 | 13.0 | 0.00 | 0.00 | 0.00 | 80 | 1013.6 |
| 20260510145804 | 51 | 54 | 5.0 | 17.0 | 0.00 | 0.00 | 0.00 | 80 | 1013.6 |
| 20260510145306 | 50 | 52 | 7.0 | 14.0 | 0.00 | 0.00 | 0.00 | 80 | 1013.7 |
| 20260510144304 | 50 | 21 | 6.0 | 20.0 | 0.00 | 0.00 | 0.00 | 81 | 1013.8 |
| 20260510143804 | 50 | 36 | 9.0 | 17.0 | 0.00 | 0.00 | 0.00 | 81 | 1013.8 |
| 20260510142805 | 50 | 36 | 10.0 | 17.0 | 0.00 | 0.00 | 0.00 | 82 | 1014.1 |
| 20260510142306 | 50 | 25 | 9.0 | 14.0 | 0.00 | 0.00 | 0.00 | 82 | 1014.1 |
| 20260510141804 | 50 | 47 | 11.0 | 17.0 | 0.00 | 0.00 | 0.00 | 81 | 1014.1 |
| 20260510135804 | 51 | 52 | 8.0 | 20.0 | 0.00 | 0.00 | 0.00 | 81 | 1014.3 |
| 20260510134304 | 51 | 49 | 10.0 | 23.0 | 0.00 | 0.00 | 0.00 | 80 | 1014.2 |
| 20260510133304 | 52 | 29 | 6.0 | 20.0 | 0.00 | 0.00 | 0.00 | 79 | 1014.2 |
| 20260510132804 | 52 | 46 | 9.0 | 16.0 | 0.00 | 0.00 | 0.00 | 79 | 1014.2 |
| 20260510131804 | 52 | 26 | 12.0 | 21.0 | 0.00 | 0.00 | 0.00 | 79 | 1014.1 |
| 20260510130805 | 52 | 22 | 6.0 | 12.0 | 0.00 | 0.00 | 0.00 | 79 | 1014.2 |
| 20260510125804 | 52 | 0 | 9.0 | 20.0 | 0.00 | 0.00 | 0.00 | 79 | 1014.2 |
| 20260510125306 | 52 | 52 | 9.0 | 20.0 | 0.00 | 0.00 | 0.00 | 79 | 1014.2 |
| 20260510121804 | 52 | 39 | 9.0 | 16.0 | 0.00 | 0.00 | 0.00 | 78 | 1014.8 |
| 20260510120305 | 53 | 50 | 8.0 | 23.0 | 0.00 | 0.00 | 0.00 | 77 | 1014.6 |
| 20260510115306 | 53 | 40 | 8.0 | 14.0 | 0.00 | 0.00 | 0.00 | 76 | 1014.8 |
| 20260510114804 | 54 | 33 | 7.0 | 18.0 | 0.00 | 0.00 | 0.00 | 75 | 1014.8 |
| 20260510114304 | 54 | 39 | 7.0 | 16.0 | 0.00 | 0.00 | 0.00 | 76 | 1014.8 |
| 20260510112804 | 54 | 39 | 7.0 | 20.0 | 0.00 | 0.00 | 0.00 | 75 | 1014.8 |
| 20260510112306 | 54 | 38 | 9.0 | 22.0 | 0.00 | 0.00 | 0.00 | 74 | 1014.8 |
| 20260510111304 | 54 | 37 | 7.0 | 20.0 | 0.00 | 0.00 | 0.00 | 75 | 1014.8 |
| 20260510105804 | 53 | 32 | 7.0 | 14.0 | 0.00 | 0.00 | 0.00 | 76 | 1014.9 |
| 20260510103304 | 53 | 30 | 8.0 | 18.0 | 0.00 | 0.00 | 0.00 | 77 | 1015.2 |
| 20260510102806 | 53 | 23 | 7.0 | 16.0 | 0.00 | 0.00 | 0.00 | 78 | 1015.2 |
| 20260510101304 | 53 | 58 | 6.0 | 17.0 | 0.00 | 0.00 | 0.00 | 78 | 1015.0 |
| 20260510094804 | 53 | 61 | 8.0 | 21.0 | 0.00 | 0.00 | 0.00 | 79 | 1015.0 |
| 20260510092805 | 53 | 41 | 7.0 | 18.0 | 0.00 | 0.00 | 0.00 | 81 | 1015.0 |
| 20260510092306 | 52 | 62 | 6.0 | 17.0 | 0.00 | 0.00 | 0.00 | 83 | 1015.2 |
| 20260510091804 | 52 | 12 | 8.0 | 17.0 | 0.00 | 0.00 | 0.00 | 84 | 1015.2 |
| 20260510091304 | 52 | 35 | 9.0 | 16.0 | 0.00 | 0.00 | 0.00 | 84 | 1015.2 |
| 20260510085805 | 51 | 43 | 6.0 | 17.0 | 0.00 | 0.00 | 0.00 | 86 | 1015.3 |
| 20260510085306 | 51 | 39 | 7.0 | 14.0 | 0.00 | 0.00 | 0.00 | 86 | 1015.3 |
| 20260510083304 | 51 | 13 | 7.0 | 18.0 | 0.00 | 0.00 | 0.00 | 87 | 1015.5 |
| 20260510081304 | 50 | 12 | 6.0 | 13.0 | 0.00 | 0.00 | 0.00 | 87 | 1015.6 |
| 20260510080804 | 50 | 28 | 6.0 | 15.0 | 0.00 | 0.00 | 0.00 | 87 | 1015.6 |
| 20260510075805 | 50 | 31 | 6.0 | 12.0 | 0.00 | 0.00 | 0.00 | 87 | 1015.6 |
| 20260510075306 | 50 | 34 | 6.0 | 12.0 | 0.00 | 0.00 | 0.00 | 87 | 1015.5 |
| 20260510072804 | 50 | 35 | 5.0 | 12.0 | 0.00 | 0.00 | 0.00 | 87 | 1015.7 |
| 20260510071804 | 50 | 35 | 8.0 | 13.0 | 0.00 | 0.00 | 0.00 | 87 | 1015.8 |
| 20260510071304 | 50 | 46 | 4.0 | 14.0 | 0.00 | 0.00 | 0.00 | 87 | 1015.7 |
| 20260510070804 | 49 | 42 | 6.0 | 15.0 | 0.00 | 0.00 | 0.00 | 87 | 1015.7 |
| 20260510070304 | 49 | 54 | 7.0 | 14.0 | 0.00 | 0.00 | 0.00 | 87 | 1015.8 |
| 20260510065804 | 49 | 64 | 5.0 | 12.0 | 0.00 | 0.00 | 0.00 | 87 | 1015.8 |
| 20260510064804 | 49 | 56 | 6.0 | 13.0 | 0.00 | 0.00 | 0.00 | 87 | 1015.8 |
| 20260510062804 | 49 | 41 | 7.0 | 12.0 | 0.00 | 0.00 | 0.00 | 89 | 1015.8 |
| 20260510060804 | 48 | 40 | 6.0 | 12.0 | 0.00 | 0.00 | 0.00 | 89 | 1015.7 |
| 20260510055804 | 48 | 55 | 4.0 | 12.0 | 0.00 | 0.00 | 0.00 | 90 | 1015.7 |
| 20260510054304 | 48 | 43 | 5.0 | 12.0 | 0.00 | 0.00 | 0.00 | 90 | 1015.6 |
| 20260510053804 | 48 | 45 | 5.0 | 12.0 | 0.00 | 0.00 | 0.00 | 90 | 1015.6 |
| 20260510052804 | 47 | 39 | 6.0 | 12.0 | 0.00 | 0.00 | 0.00 | 90 | 1015.6 |
| 20260510052306 | 47 | 39 | 6.0 | 12.0 | 0.00 | 0.00 | 0.00 | 90 | 1015.7 |
| 20260510050804 | 47 | 34 | 5.0 | 12.0 | 0.00 | 0.00 | 0.00 | 90 | 1015.6 |
| 20260510050304 | 47 | 27 | 3.0 | 12.0 | 0.00 | 0.00 | 0.00 | 90 | 1015.7 |
| 20260510045804 | 47 | 21 | 6.0 | 13.0 | 0.00 | 0.00 | 0.00 | 90 | 1015.7 |
| 20260510045306 | 47 | 54 | 6.0 | 13.0 | 0.00 | 0.00 | 0.00 | 90 | 1015.6 |
| 20260510044804 | 47 | 44 | 5.0 | 12.0 | 0.00 | 0.00 | 0.00 | 90 | 1015.6 |
| 20260510043804 | 47 | 35 | 6.0 | 16.0 | 0.00 | 0.00 | 0.00 | 90 | 1015.5 |
| 20260510043304 | 47 | 29 | 5.0 | 13.0 | 0.00 | 0.00 | 0.00 | 90 | 1015.4 |
| 20260510042804 | 47 | 28 | 7.0 | 15.0 | 0.00 | 0.00 | 0.00 | 90 | 1015.4 |
| 20260510042306 | 47 | 26 | 6.0 | 14.0 | 0.00 | 0.00 | 0.00 | 90 | 1015.6 |
| 20260510041804 | 47 | 12 | 6.0 | 14.0 | 0.00 | 0.00 | 0.00 | 90 | 1015.6 |
| 20260510040804 | 48 | 30 | 7.0 | 16.0 | 0.00 | 0.00 | 0.00 | 90 | 1015.6 |
| 20260510035306 | 48 | 21 | 7.0 | 13.0 | 0.00 | 0.00 | 0.00 | 90 | 1015.8 |
| 20260510034304 | 48 | 40 | 7.0 | 13.0 | 0.00 | 0.00 | 0.00 | 90 | 1015.8 |
| 20260510033804 | 48 | 8 | 5.0 | 14.0 | 0.00 | 0.00 | 0.00 | 90 | 1015.8 |
| 20260510033305 | 48 | 16 | 5.0 | 13.0 | 0.00 | 0.00 | 0.00 | 90 | 1015.8 |
| 20260510032306 | 48 | 33 | 6.0 | 12.0 | 0.00 | 0.00 | 0.00 | 90 | 1015.9 |
| 20260510031304 | 49 | 38 | 4.0 | 10.0 | 0.00 | 0.00 | 0.00 | 90 | 1015.9 |
| 20260510030804 | 49 | 24 | 5.0 | 12.0 | 0.00 | 0.00 | 0.00 | 90 | 1015.9 |
| 20260510030304 | 49 | 32 | 5.0 | 10.0 | 0.00 | 0.00 | 0.00 | 90 | 1015.9 |
| 20260510025804 | 49 | 32 | 5.0 | 12.0 | 0.00 | 0.00 | 0.00 | 90 | 1015.9 |
| 20260510023805 | 49 | 48 | 5.0 | 12.0 | 0.00 | 0.00 | 0.00 | 89 | 1016.0 |
| 20260510022804 | 49 | 35 | 5.0 | 12.0 | 0.00 | 0.00 | 0.00 | 89 | 1016.0 |
| 20260510021304 | 50 | 23 | 5.0 | 10.0 | 0.00 | 0.00 | 0.00 | 88 | 1015.9 |
| 20260510020804 | 50 | 39 | 5.0 | 10.0 | 0.00 | 0.00 | 0.00 | 87 | 1015.9 |
| 20260510012804 | 51 | 53 | 4.0 | 9.0 | 0.00 | 0.00 | 0.00 | 82 | 1016.0 |
| 20260510011804 | 51 | 27 | 5.0 | 10.0 | 0.00 | 0.00 | 0.00 | 82 | 1016.0 |
| 20260510011304 | 51 | 58 | 5.0 | 12.0 | 0.00 | 0.00 | 0.00 | 82 | 1015.9 |
| 20260510010304 | 51 | 34 | 3.0 | 10.0 | 0.00 | 0.00 | 0.00 | 82 | 1016.0 |
| 20260510005306 | 51 | 43 | 5.0 | 12.0 | 0.00 | 0.00 | 0.00 | 81 | 1016.0 |
| 20260510004804 | 51 | 51 | 4.0 | 10.0 | 0.00 | 0.00 | 0.00 | 81 | 1016.0 |
| 20260510003304 | 51 | 45 | 5.0 | 10.0 | 0.00 | 0.00 | 0.00 | 79 | 1016.1 |
| 20260510002805 | 51 | 38 | 5.0 | 12.0 | 0.00 | 0.00 | 0.00 | 79 | 1016.1 |
| 20260510002306 | 51 | 41 | 5.0 | 12.0 | 0.00 | 0.00 | 0.00 | 78 | 1016.0 |
| 20260510001805 | 51 | 25 | 5.0 | 12.0 | 0.00 | 0.00 | 0.00 | 77 | 1016.0 |
| 20260510001304 | 51 | 46 | 5.0 | 10.0 | 0.00 | 0.00 | 0.00 | 76 | 1016.2 |
| 20260510000804 | 51 | 51 | 4.0 | 10.0 | 0.00 | 0.00 | 0.00 | 76 | 1016.2 |
| 20260510000304 | 51 | 46 | 5.0 | 10.0 | 0.00 | 0.00 | 0.00 | 75 | 1016.1 |